Flag for Norway Weather past 2 weeks in Stange, Norway

Now
28 °F

Chilly.


Feels Like: 22 °F
Forecast: 24 / 27 °F
Wind: 6 mph from North

Location: Haugedalshogda

Current Time: Jan 31, 2015 at 5:26:56 PM

Latest Report: Jan 31, 2015 at 4:00 PM


Visibility: N/A

Pressure: 29.06 "Hg

Humidity: 86%

Dew point: 25 °F

Location of StangeLocation

Historic Weather in Stange — Graph

°F

Stange temperature yesterday

Maximum temperature yesterday: 31 °F (at 12:00 AM)
Minimum temperature yesterday: 26 °F (at 9:00 PM)
Average temperature yesterday: 29 °F

Past Weeks' High & Low Weather Summary

 TemperatureHumidityPressure
High36 °F (Jan 16, 5:00 PM)96% (Jan 24, 11:00 PM)30.37 "Hg (Jan 24, 11:00 PM)
Low-7 °F (Jan 23, 10:00 AM)66% (Jan 17, 3:00 AM)28.47 "Hg (Jan 29, 6:00 AM)
Average22 °F91%29.69 "Hg
* Reported Jan 16 4:00 PM — Jan 31 4:00 PM, Stange, Weather by CustomWeather, © 2014

Note: Actual official high and low records may vary slightly from our data, if they occured in-between our weather recording intervals... More about our weather records

Advertising

Stange weather history for previous 24 hours

 ConditionsComfort  
Time TempWeatherWind HumidityBarometerVisibility
4:00 PM
Jan 31
28 °FChilly.6 mph86%29.06 "HgN/A
3:00 PM29 °FChilly.6 mph86%29.06 "HgN/A
2:00 PM29 °FChilly.6 mph86%29.06 "HgN/A
1:00 PM29 °FChilly.6 mph86%29.06 "HgN/A
12:00 PM28 °FChilly.6 mph87%29.06 "HgN/A
11:00 AM28 °FChilly.5 mph88%29.06 "HgN/A
10:00 AM27 °FChilly.5 mph91%29.06 "HgN/A
9:00 AM26 °FChilly.3 mph91%29.06 "HgN/A
8:00 AM27 °FChilly.2 mph91%29.06 "HgN/A
7:00 AM28 °FChilly.5 mph91%29.03 "HgN/A
6:00 AM28 °FChilly.3 mph92%29.03 "HgN/A
5:00 AM28 °FChilly.3 mph91%29.03 "HgN/A
3:00 AM27 °FChilly.1 mph95%29.03 "HgN/A
2:00 AM27 °FChilly.1 mph95%29.03 "HgN/A
1:00 AM27 °FChilly.1 mph94%29.00 "HgN/A
12:00 AM28 °FChilly.1 mph93%29.00 "HgN/A
11:00 PM
Jan 30
28 °FChilly.2 mph94%29.00 "HgN/A
9:00 PM26 °FChilly.1 mph94%28.97 "HgN/A
8:00 PM28 °FChilly.1 mph94%28.94 "HgN/A
7:00 PM28 °FChilly.2 mph94%28.94 "HgN/A
6:00 PM29 °FChilly.1 mph94%28.91 "HgN/A
5:00 PM28 °FChilly.1 mph93%28.91 "HgN/A
Weather by CustomWeather, © 2014

See weather overviewHow to use our weather pages